Regional Weather Roundup
Issued by NWS

Home | Current Version | Previous Version | Text Only | Print | Product List | Glossary Off
Versions: 1 2 3 4 5 6 7 8 9 10 11 12 13 14 15 16 17 18 19 20 21 22 23 24 25 26 27 28 29 30 31 32 33 34 35 36 37 38 39 40 41 42 43 44 45 46 47 48 49 50

000
ASUS43 KMKX 171311
RWRWI

WISCONSIN REGIONAL WEATHER ROUNDUP
NATIONAL WEATHER SERVICE MILWAUKEE/SULLIVAN WI
800 AM CDT THU APR 17 2014

NOTE: "FAIR" INDICATES FEW OR NO CLOUDS BELOW 12,000 FEET WITH NO
SIGNIFICANT WEATHER AND/OR OBSTRUCTIONS TO VISIBILITY.

WIZ001-002-006>008-014>016-023>028-171400-
NORTHWEST WISCONSIN

CITY           SKY/WX    TMP DP  RH WIND       PRES   REMARKS
SUPERIOR ARPT  CLOUDY    31  28  90 N9        30.18R WCI  23
ASHLAND        LGT SNOW  29  29 100 NE7       30.13R FOG     WCI  22
HAYWARD        CLOUDY    29  27  92 VRB3      30.09R FOG
SIREN          CLOUDY    30  29  96 N9        30.14R WCI  21
RICE LAKE      CLOUDY    31  29  93 N8        30.10R FOG     WCI  24
LADYSMITH      CLOUDY    34  33  97 NW5       30.07R FOG     WCI  30
EAU CLAIRE     CLOUDY    36  34  92 N7        30.06R WCI  30
MENOMONIE      CLOUDY    33  33  99 NW9       30.08R WCI  26
NEW RICHMOND   CLOUDY    30  30 100 NW10      30.13R WCI  21
OSCEOLA        CLOUDY    31  30  96 N9        30.16R WCI  23
$$

WIZ003>005-009-010-017-018-171400-
NORTH CENTRAL WISCONSIN

CITY           SKY/WX    TMP DP  RH WIND       PRES   REMARKS
WOODRUFF       LGT SNOW  33  31  93 SE6       30.05R VSB 3/4 WCI  27
RHINELANDER    SNOW      31  31 100 E9        30.05R VSB 1/2 WCI  23
EAGLE RIVER    SNOW      31  31  99 SE7       30.05S VSB 1/2 WCI  24
LAND O LAKES   LGT SNOW  31  30  96 SE7       30.07R VSB 3/4 WCI  24
PHILLIPS       LGT SNOW  32  31  96 CALM      30.04R
TOMAHAWK       LGT RAIN  32  31  97 CALM      30.04R
MEDFORD        LGT SNOW  32  32  99 E5        30.03R WCI  28
MERRILL        LGT SNOW  33  32  99 CALM      30.05R
$$

WIZ029-030-035-036-043>047-171400-
CENTRAL WISCONSIN

CITY           SKY/WX    TMP DP  RH WIND       PRES   REMARKS
WAUSAU         LGT SNOW  33  32  96 E8        30.03R VSB 1   WCI  26
MOSINEE        LGT SNOW  32  32 100 E8        30.04R VSB 1   WCI  25
MARSHFIELD     PTSUNNY   34  32  92 E7        30.02R FOG     WCI  28
STEVENS POINT  LGT RAIN  32  31  96 E6        30.04R WCI  27
WAUPACA        CLOUDY    39  30  70 E5        30.05R
WAUTOMA        PTSUNNY   43  31  63 SE7       30.02R
WISC RAPIDS    CLOUDY    38  32  79 NE7       30.03R WCI  33
CAMP DOUGLAS   DRIZZLE   43  41  93 SW7       30.02R
$$

WIZ011>013-019>022-031-037>040-048>050-171400-
NORTHEAST WISCONSIN

CITY           SKY/WX    TMP DP  RH WIND       PRES   REMARKS
ANTIGO         SNOW      31  31  98 SE12      30.06R VSB 1/2 WCI  22
STURGEON BAY   CLOUDY    34  30  86 SE12      30.15R WCI  25
GREEN BAY      CLOUDY    37  30  75 SE16      30.09S WCI  28
MANITOWOC      CLOUDY    37  30  75 SE16G23   30.12R WCI  28
APPLETON       CLOUDY    37  28  70 SE14G22   30.05S WCI  29
CLINTONVILLE   CLOUDY    34  32  93 E7        30.07R WCI  28
OSHKOSH        CLOUDY    39  29  67 SE14      30.04R WCI  31
$$

WIZ032>034-041-042-053>061-171400-
SOUTHWEST WISCONSIN

CITY           SKY/WX    TMP DP  RH WIND       PRES   REMARKS
LA CROSSE      SUNNY     45  37  73 NW15      30.04R
SPARTA         SUNNY     42  37  82 SW6       30.04R
VIROQUA        CLOUDY    38  38 100 W8        30.04R WCI  32
BOSCOBEL       CLOUDY    39  33  79 SW9       30.09R WCI  33
PRAIRIE DU CHI CLOUDY    36  32  85 W5        30.11R WCI  32
PLATTEVILLE    CLOUDY    38  33  83 W16G23    30.09R WCI  28
$$

WIZ056-057-062-063-064-067-068-171400-
SOUTH CENTRAL WISCONSIN

CITY           SKY/WX    TMP DP  RH WIND       PRES   REMARKS
BARABOO/DELLS  CLOUDY    43  35  75 SW13G18   30.03R
LONE ROCK      CLOUDY    40  35  83 W16       30.07R WCI  31
WATERTOWN      CLOUDY    42  31  64 S14       30.06R
MADISON        CLOUDY    44  32  62 S7        30.04R
MIDDLETON      CLOUDY    46  34  65 SW9       30.04R
MONROE         CLOUDY    41  41 100 W13       30.06R
JANESVILLE     CLOUDY    45  28  53 S17G25    30.05S
$$

WIZ051-052-058>065-066-070>072-171400-
SOUTHEAST WISCONSIN

CITY           SKY/WX    TMP DP  RH WIND       PRES   REMARKS
MILWAUKEE      PTSUNNY   41  31  67 S13       30.10S
WAUKESHA       MOSUNNY   41  30  65 S12       30.08R
MILWAUKEE/TIMM MOSUNNY   41  28  60 SE12        N/A
RACINE         PTSUNNY   41  32  70 S18G29    30.11F
BURLINGTON     PTSUNNY   43  31  61 SW14G20   30.09R
KENOSHA        PTSUNNY   46  29  51 S16       30.10S
FOND DU LAC    CLOUDY    39  30  70 SE14      30.05R WCI  31
SHEBOYGAN      CLOUDY    37  29  72 S13G23    30.11R WCI  29
WEST BEND      PTSUNNY   39  30  70 SE6       30.08R WCI  35
JUNEAU         CLOUDY    42  27  54 S16       30.06R
$$

LSZ147-162-171400-
LAKE SUPERIOR

STATION/POSITION TIME  TEMP    WIND        PRES    WAVE
                       AIR SEA DIR/SP/G            HT/PER
                 (UTC) (F)     (DEG/KT/KT) (MB)    (FT/S)
DEVILS ISLAND    1200   31      70/ 25/ 30 1021.0S
PORT WING        1200   30      40/  5/  6 1020.0R
SAXON HARBOR     1240           50/ 11/ 12 1019.6R
$$

LMZ867-665-643>646-171400-
LAKE MICHIGAN

STATION/POSITION TIME  TEMP    WIND        PRES    WAVE
                       AIR SEA DIR/SP/G            HT/PER
                 (UTC) (F)     (DEG/KT/KT) (MB)    (FT/S)
NORTHPORT PIER   1200   34     110/  8/ 11 1022.4S
SISTER BAY       1223   32     160/ 15/ 25   N/A
SHEBOYGAN LAKESH 1300   38     150/ 28/ 32 1019.8R
PORT WASHINGTON  1240   38     170/ 13/ 19 1020.0R
MILWAUKEE LAKESH 1200   39     160/ 23/ 26   N/A
KENOSHA   LAKESH 1300   40     170/ 19/ 21   N/A
$$

TC  - TEMPERATURE IN CELSIUS
VSB - VISIBILITY IN STATUTE MILES
WCI - WIND CHILL INDEX
HX  - HEAT INDEX




USA.gov is the U.S. government's official web portal to all federal, state and local government web resources and services.